Brunswick, GA

5:57 AM EDT on September 24, 2017 (GMT -0400)
Glynco Jetport

Weather History for KBQK - December, 2012

Change the Weather History Date:

Sunday, December 2, 2012

  Actual Average Record
Temperature  
Mean Temperature 66 °F -  
Max Temperature 78 °F 67 °F 81 °F (1968)
Min Temperature 53 °F 46 °F 23 °F (1999)
Growing Degree Days 16 (Base 50)    
Moisture  
Dew Point 60 °F    
Average Humidity 85    
Maximum Humidity 100    
Minimum Humidity 54    
Precipitation  
Precipitation 0.00 in - - ()
Sea Level Pressure  
Sea Level Pressure 30.31 in    
Wind  
Wind Speed 2 mph (ENE)    
Max Wind Speed 10 mph    
Max Gust Speed -    
Visibility 6 miles    
Events      
Averages and records for this station are not official NWS values.
T = Trace of Precipitation, MM = Missing Value Source: NWS Daily Summary

Daily Weather History Graph

Daily Weather History Graph

Search for Another Location

Airport or City:

Trip Planner

Search our weather history database for the weather conditions in past years. The results will help you decide how hot, cold, wet, or windy it might be!

Date:

Astronomy

Dec. 02, 2012 Rise Set
Actual Time 7:08 AM EST 5:22 PM EST
Civil Twilight 6:41 AM EST 5:49 PM EST
Nautical Twilight 6:11 AM EST 6:19 PM EST
Astronomical Twilight 5:42 AM EST 6:48 PM EST
Moon 9:02 PM EST (12/2) 10:02 AM EST (12/2)
Length of Visible Light 11h 07m
Length of Day
10h 14m
Waning Gibbous, 86% of the Moon is Illuminated
Dec 2
Waning Gibbous
Dec 6
Last Quarter
Dec 13
New
Dec 20
First Quarter
Dec 28
Full

Hourly Weather History & Observations

Time (EST) Temp. Dew Point Humidity Pressure Visibility Wind Dir Wind Speed Gust Speed Precip Events Conditions
12:15 AM 59.0 °F 59.0 °F 100% 30.32 in 0.2 mi Calm Calm - N/A   Mostly Cloudy
12:35 AM 59.0 °F 57.2 °F 94% 30.32 in 0.2 mi Calm Calm - N/A   Unknown
12:55 AM 59.0 °F 57.2 °F 94% 30.32 in 0.2 mi Calm Calm - N/A   Unknown
1:15 AM 57.2 °F 57.2 °F 100% 30.32 in 2.5 mi Calm Calm - N/A   Scattered Clouds
1:35 AM 59.0 °F 59.0 °F 100% 30.32 in 0.5 mi Calm Calm - N/A   Mostly Cloudy
1:55 AM 57.2 °F 55.4 °F 94% 30.31 in 7.0 mi Calm Calm - N/A   Clear
2:15 AM 59.0 °F 57.2 °F 94% 30.31 in 1.0 mi Calm Calm - N/A   Unknown
2:35 AM 59.0 °F 59.0 °F 100% 30.31 in 3.0 mi Calm Calm - N/A   Scattered Clouds
2:55 AM 59.0 °F 59.0 °F 100% 30.31 in 5.0 mi Calm Calm - N/A   Scattered Clouds
3:15 AM 59.0 °F 59.0 °F 100% 30.31 in 0.2 mi Calm Calm - N/A   Unknown
3:35 AM 57.2 °F 57.2 °F 100% 30.31 in 0.5 mi Calm Calm - N/A   Mostly Cloudy
3:55 AM 59.0 °F 57.2 °F 94% 30.31 in 1.5 mi Calm Calm - N/A   Unknown
4:15 AM 55.4 °F 55.4 °F 100% 30.31 in 0.2 mi Calm Calm - N/A   Unknown
4:35 AM 55.4 °F 55.4 °F 100% 30.31 in 0.2 mi Calm Calm - N/A   Mostly Cloudy
4:55 AM 57.2 °F 57.2 °F 100% 30.32 in 0.8 mi Calm Calm - N/A   Unknown
5:15 AM 55.4 °F 55.4 °F 100% 30.32 in 0.2 mi Calm Calm - N/A   Overcast
5:35 AM 55.4 °F 55.4 °F 100% 30.32 in 0.5 mi Calm Calm - N/A   Overcast
5:55 AM 55.4 °F 53.6 °F 94% 30.32 in 0.2 mi Calm Calm - N/A   Overcast
6:15 AM 55.4 °F 55.4 °F 100% 30.32 in 0.5 mi Calm Calm - N/A   Mostly Cloudy
6:35 AM 55.4 °F 53.6 °F 94% 30.33 in 0.2 mi Calm Calm - N/A   Overcast
6:55 AM 55.4 °F 53.6 °F 94% 30.33 in 0.5 mi Calm Calm - N/A   Mostly Cloudy
7:15 AM 53.6 °F 53.6 °F 100% 30.33 in 0.2 mi Calm Calm - N/A   Overcast
7:35 AM 55.4 °F 53.6 °F 94% 30.33 in 0.2 mi Calm Calm - N/A   Mostly Cloudy
7:55 AM 55.4 °F 55.4 °F 100% 30.33 in 1.0 mi Calm Calm - N/A   Unknown
8:15 AM 60.8 °F 60.8 °F 100% 30.34 in 7.0 mi Calm Calm - N/A   Mostly Cloudy
8:35 AM 64.4 °F 62.6 °F 94% 30.35 in 10.0 mi NE 3.5 mph - N/A   Mostly Cloudy
8:55 AM 66.2 °F 64.4 °F 94% 30.35 in 10.0 mi Calm Calm - N/A   Scattered Clouds
9:15 AM 69.8 °F 64.4 °F 83% 30.35 in 10.0 mi ENE 3.5 mph - N/A   Clear
9:35 AM 71.6 °F 64.4 °F 78% 30.36 in 10.0 mi ENE 5.8 mph - N/A   Clear
9:55 AM 73.4 °F 64.4 °F 73% 30.36 in 10.0 mi ENE 5.8 mph - N/A   Mostly Cloudy
10:15 AM 75.2 °F 64.4 °F 69% 30.36 in 10.0 mi ENE 6.9 mph - N/A   Scattered Clouds
10:35 AM 77.0 °F 62.6 °F 61% 30.36 in 10.0 mi NE 5.8 mph - N/A   Clear
10:55 AM 77.0 °F 62.6 °F 61% 30.36 in 10.0 mi East 8.1 mph - N/A   Clear
11:15 AM 78.8 °F 62.6 °F 57% 30.35 in 10.0 mi ENE 10.4 mph - N/A   Clear
11:35 AM 77.0 °F 62.6 °F 61% 30.35 in 10.0 mi East 8.1 mph - N/A   Clear
11:55 AM 78.8 °F 62.6 °F 57% 30.34 in 10.0 mi ENE 8.1 mph - N/A   Clear
12:15 PM 77.0 °F 62.6 °F 61% 30.33 in 10.0 mi ENE 8.1 mph - N/A   Clear
12:35 PM 78.8 °F 62.6 °F 57% 30.32 in 10.0 mi ENE 8.1 mph - N/A   Clear
12:55 PM 78.8 °F 62.6 °F 57% 30.31 in 10.0 mi ENE 5.8 mph - N/A   Clear
1:15 PM 78.8 °F 60.8 °F 54% 30.30 in 10.0 mi East 4.6 mph - N/A   Clear
1:35 PM 78.8 °F 62.6 °F 57% 30.29 in 10.0 mi East 8.1 mph - N/A   Clear
1:55 PM 78.8 °F 62.6 °F 57% 30.29 in 10.0 mi East 8.1 mph - N/A   Clear
2:15 PM 78.8 °F 62.6 °F 57% 30.29 in 10.0 mi East 6.9 mph - N/A   Clear
2:35 PM 77.0 °F 62.6 °F 61% 30.29 in 10.0 mi East 8.1 mph - N/A   Clear
2:55 PM 78.8 °F 62.6 °F 57% 30.28 in 10.0 mi ENE 8.1 mph - N/A   Clear
3:15 PM 77.0 °F 62.6 °F 61% 30.28 in 10.0 mi ENE 9.2 mph - N/A   Clear
3:35 PM 75.2 °F 62.6 °F 65% 30.28 in 10.0 mi East 8.1 mph - N/A   Clear
3:55 PM 75.2 °F 62.6 °F 65% 30.28 in 10.0 mi ENE 6.9 mph - N/A   Clear
4:15 PM 73.4 °F 62.6 °F 69% 30.28 in 10.0 mi East 5.8 mph - N/A   Clear
4:35 PM 73.4 °F 62.6 °F 69% 30.27 in 10.0 mi East 6.9 mph - N/A   Clear
4:55 PM 71.6 °F 62.6 °F 73% 30.28 in 10.0 mi East 4.6 mph - N/A   Clear
5:15 PM 69.8 °F 62.6 °F 78% 30.28 in 10.0 mi East 4.6 mph - N/A   Clear
5:35 PM 68.0 °F 62.6 °F 83% 30.28 in 10.0 mi Calm Calm - N/A   Clear
5:55 PM 64.4 °F 62.6 °F 94% 30.28 in 10.0 mi Calm Calm - N/A   Clear
6:15 PM 64.4 °F 62.6 °F 94% 30.29 in 10.0 mi Calm Calm - N/A   Clear
6:35 PM 64.4 °F 62.6 °F 94% 30.29 in 10.0 mi Calm Calm - N/A   Clear
6:55 PM 62.6 °F 60.8 °F 94% 30.29 in 10.0 mi Calm Calm - N/A   Clear
7:15 PM 62.6 °F 60.8 °F 94% 30.29 in 10.0 mi Calm Calm - N/A   Clear
7:35 PM 60.8 °F 59.0 °F 94% 30.29 in 0.5 mi Calm Calm - N/A   Unknown
7:55 PM 60.8 °F 60.8 °F 100% 30.29 in 1.2 mi Calm Calm - N/A   Unknown
8:15 PM 60.8 °F 59.0 °F 94% 30.29 in 1.0 mi Calm Calm - N/A   Unknown
8:35 PM 60.8 °F 59.0 °F 94% 30.29 in 10.0 mi Calm Calm - N/A   Clear
8:55 PM 59.0 °F 59.0 °F 100% 30.29 in 7.0 mi Calm Calm - N/A   Clear
9:15 PM 59.0 °F 59.0 °F 100% 30.29 in 10.0 mi Calm Calm - N/A   Clear
9:35 PM 57.2 °F 55.4 °F 94% 30.29 in 0.2 mi Calm Calm - N/A   Overcast
9:55 PM 59.0 °F 57.2 °F 94% 30.30 in 0.2 mi Calm Calm - N/A   Overcast
10:15 PM 59.0 °F 59.0 °F 100% 30.30 in 0.2 mi Calm Calm - N/A   Overcast
10:35 PM 59.0 °F 59.0 °F 100% 30.29 in 0.2 mi Calm Calm - N/A   Overcast
10:55 PM 59.0 °F 59.0 °F 100% 30.29 in 0.2 mi Calm Calm - N/A   Overcast
11:15 PM 59.0 °F 59.0 °F 100% 30.29 in 0.2 mi Calm Calm - N/A   Overcast
11:35 PM 59.0 °F 57.2 °F 94% 30.29 in 0.2 mi Calm Calm - N/A   Overcast
11:55 PM 57.2 °F 57.2 °F 100% 30.29 in 0.2 mi Calm Calm - N/A   Overcast